This demonstration page uses our WeatherBlox Daily Observations layout. Learn more.

41.55636, -103.73856

Hourly Observations for August 22, 2016

Temp ( °F °C ) Dew Point ( °F °C ) Humidity (%) Winds ( mph kmh ) Pressure ( in mb ) Visibility ( mi km ) Precip ( " mm )
12:53 am 00:53 Clear 62 16.7 53 11.7 73 73 NNE 7 11 29.75 1008 10 16.0934 0 0
1:53 am 01:53 Clear 62 16.7 53 11.7 73 73 E 9 15 29.75 1008 10 16.0934 0 0
2:53 am 02:53 Clear 61 16.1 53 11.7 75 75 ENE 6 9 29.74 1007 10 16.0934 0 0
3:53 am 03:53 Clear 60 15.6 53 11.7 78 78 E 6 9 29.73 1007 10 16.0934 0 0
4:53 am 04:53 Clear 61 16.1 52 11.1 72 72 Calm 29.72 1007 10 16.0934 0 0
5:53 am 05:53 Clear 57 13.9 52 11.1 83 83 E 5 7 29.74 1007 10 16.0934 0 0
6:53 am 06:53 Sunny 58 14.4 53 11.7 84 84 ESE 5 7 29.76 1008 10 16.0934 0 0
7:53 am 07:53 Sunny 62 16.7 56 13.3 80 80 E 5 7 29.76 1008 10 16.0934 0 0
8:53 am 08:53 Sunny 68 20 58 14.4 70 70 ESE 3 6 29.76 1008 10 16.0934 0 0
9:53 am 09:53 Sunny 75 23.9 59 15 58 58 Calm 29.75 1008 10 16.0934 0 0
10:53 am 10:53 Sunny 81 27.2 57 13.9 44 44 VRB 3 6 29.74 1007 10 16.0934 0 0
11:53 am 11:53 Sunny 87 30.6 46 7.8 24 24 W 7 11 29.72 1006 10 16.0934 0 0
12:53 pm 12:53 Sunny 90 32.2 44 6.7 20 20 W 5 7 29.7 1006 10 16.0934 0 0
1:53 pm 13:53 Sunny 92 33.3 46 7.8 21 21 Calm 29.68 1005 10 16.0934 0 0
2:53 pm 14:53 Sunny 92 33.3 47 8.3 21 21 S 3 6 29.66 1005 10 16.0934 0 0
3:53 pm 15:53 Sunny 91 32.8 52 11.1 26 26 E 6 9 29.65 1004 10 16.0934 0 0
4:53 pm 16:53 Sunny 90 32.2 52 11.1 27 27 SE 12 19 29.66 1004 10 16.0934 0 0
5:53 pm 17:53 Sunny 88 31.1 55 12.8 33 33 SSW 14 22 29.67 1005 10 16.0934 0 0
6:53 pm 18:53 Sunny 83 28.3 52 11.1 34 34 SE 3 6 29.68 1005 10 16.0934 0 0
7:53 pm 19:53 Clear 75 23.9 52 11.1 45 45 ESE 10 17 29.7 1006 10 16.0934 0 0
8:53 pm 20:53 Clear 68 20 56 13.3 65 65 E 5 7 29.72 1007 10 16.0934 0 0
9:53 pm 21:53 Clear 66 18.9 58 14.4 75 75 E 7 11 29.71 1006 10 16.0934 0 0
10:53 pm 22:53 Clear 63 17.2 57 13.9 81 81 E 7 11 29.71 1006 10 16.0934 0 0
11:53 pm 23:53 Clear 61 16.1 56 13.3 84 84 SE 5 7 29.7 1006 10 16.0934 0 0

Powered by AerisWeather